Weather in Leduc

Canada     53°15′36″N   113°33′11″W
temp.,
°C
wind,
m/s
gust,
m/s
humid.,
%
clouds,
%
prec.,
mm/h
press.,
hPa
HPBL,
m
12 may, wed
wed1200:00+8sw22622 0.0 102011
03:00+6sw22725 0.0 102110
06:00+5sse22745 0.0 102110
09:00+11s346087 0.0 1020345
12:00+15s434486 0.0 10181560
15:00+16s3338100 0.0 10162079
18:00+17sse3436100 0.0 10152319
21:00+12se345499 0.0 101541
13 may, thu
thu1300:00+10se335135 0.0 101531
03:00+8sse22605 0.0 101615
06:00+6w35736 0.0 101878
09:00+11nw466696 0.0 1018358
12:00+16nw45515 0.0 10161341
15:00+18nnw453978 0.0 10162631
18:00+18nnw443690 0.0 10152303
21:00+11nne347124 0.0 101766
14 may, fri
fri1400:00+9wnw116538 0.0 101815
03:00+7wnw227935 0.0 101910
06:00+7wnw018299 0.0 101910
09:00+12ssw226352 0.0 1018310
12:00+16sw224893 0.1 10171317
15:00+18ssw2338100 0.1 10152299
18:00+18se233762 0.1 10131590
21:00+12n2274100 0.0 101440
15 may, sat
sat1500:00+10wnw4889100 0.3 1015180
03:00+10sw1183100 0.1 101419
06:00+7wsw349156 0.1 101584
09:00+12wsw337080 0.0 1014303
12:00+17w355098 0.0 10121104
15:00+20wnw574278 0.0 10112564
18:00+19n3345100 0.0 10101525
21:00+14nne5863100 0.1 1012320
16 may, sun
sun1600:00+11ese2477100 0.1 1013123
03:00+10ese238596 0.0 101359
06:00+10sse129045 0.0 101317
09:00+14sse3471100 0.0 1012485
12:00+17sse6756100 0.0 10101210
15:00+21sse674499 0.0 10071503
18:00+22se454483 0.0 10051277
21:00+17e336321 0.0 100518